Location: Misciano
(43.5000°N, 11.9500°E)
Time: 15:53:01
(UTC+00:00)

NOSS 3-2 (C) - Pass Details

Date: 13 August 2020
Orbit: 800 x 1413 km, 63.4° (Epoch: 15 September)

Event Time Altitude Azimuth Distance (km) Brightness Sun altitude
Rises 19:37:30 0° 198° (SSW) 3,327 6.1 -13.5°
Reaches altitude 10° 19:39:53 10° 193° (SSW) 2,434 5.4 -13.9°
Maximum altitude 19:45:16 52° 118° (ESE) 1,101 3.4 -14.7°
Drops below altitude 10° 19:51:22 10° 44° (NE) 2,748 5.8 -15.6°
Sets 19:54:11 0° 40° (NE) 3,797 6.6 -16.0°
